Time,TemperatureF,DewpointF,PressureIn,WindDirection,WindDirectionDegrees,WindSpeedMPH,WindSpeedGustMPH,Humidity,HourlyPrecipIn,Conditions,Clouds,dailyrainin,SoftwareType,DateUTC
2013-08-15 00:02:00,64.8,61.8,29.93,SW,232,1.0,1.0,90,0.00,,---,0.00,VWS V14.01,2013-08-15 07:02:00,
2013-08-15 00:07:00,64.5,61.5,29.93,SW,227,0.0,4.0,90,0.00,,---,0.00,VWS V14.01,2013-08-15 07:07:00,
2013-08-15 00:12:00,64.3,61.6,29.93,SW,234,0.0,4.0,91,0.00,,---,0.00,VWS V14.01,2013-08-15 07:12:00,
2013-08-15 00:17:00,64.1,61.4,29.93,SW,234,0.0,4.0,91,0.00,,---,0.00,VWS V14.01,2013-08-15 07:17:00,
2013-08-15 00:22:00,64.0,61.3,29.92,SW,234,0.0,4.0,91,0.00,,---,0.00,VWS V14.01,2013-08-15 07:22:00,
2013-08-15 00:27:00,63.9,61.2,29.92,SW,234,0.0,4.0,91,0.00,,---,0.00,VWS V14.01,2013-08-15 07:27:00,
2013-08-15 00:32:00,63.8,61.1,29.92,SW,234,0.0,0.0,91,0.00,,---,0.00,VWS V14.01,2013-08-15 07:32:00,
2013-08-15 00:37:00,63.8,61.4,29.92,SW,234,0.0,1.0,92,0.00,,---,0.00,VWS V14.01,2013-08-15 07:37:00,
2013-08-15 00:42:00,63.7,61.0,29.92,SW,234,0.0,1.0,91,0.00,,---,0.00,VWS V14.01,2013-08-15 07:42:00,
2013-08-15 00:47:00,63.7,61.3,29.92,SW,234,0.0,1.0,92,0.00,,---,0.00,VWS V14.01,2013-08-15 07:47:00,
2013-08-15 00:52:00,63.7,61.3,29.92,SW,234,0.0,1.0,92,0.00,,---,0.00,VWS V14.01,2013-08-15 07:52:00,
2013-08-15 00:57:00,63.6,61.2,29.92,SW,234,0.0,1.0,92,0.00,,---,0.00,VWS V14.01,2013-08-15 07:57:00,
2013-08-15 01:02:00,63.6,61.2,29.92,SW,234,0.0,0.0,92,0.00,,---,0.00,VWS V14.01,2013-08-15 08:02:00,
2013-08-15 01:07:00,63.6,61.2,29.92,SW,234,0.0,0.0,92,0.00,,---,0.00,VWS V14.01,2013-08-15 08:07:00,
2013-08-15 01:12:00,63.6,61.2,29.92,SW,234,0.0,2.0,92,0.00,,---,0.00,VWS V14.01,2013-08-15 08:12:00,
2013-08-15 01:17:00,63.6,60.9,29.92,SW,234,0.0,2.0,91,0.00,,---,0.00,VWS V14.01,2013-08-15 08:17:00,
2013-08-15 01:23:00,63.6,60.9,29.91,SW,234,0.0,2.0,91,0.00,,---,0.00,VWS V14.01,2013-08-15 08:23:00,
2013-08-15 01:28:00,63.6,60.9,29.92,SW,234,0.0,2.0,91,0.00,,---,0.00,VWS V14.01,2013-08-15 08:28:00,
2013-08-15 01:33:00,63.5,61.1,29.92,SW,234,0.0,0.0,92,0.00,,---,0.00,VWS V14.01,2013-08-15 08:33:00,
2013-08-15 01:38:00,63.5,60.8,29.92,SW,234,0.0,0.0,91,0.00,,---,0.00,VWS V14.01,2013-08-15 08:38:00,
2013-08-15 01:43:00,63.4,61.0,29.92,SW,234,0.0,0.0,92,0.00,,---,0.00,VWS V14.01,2013-08-15 08:43:00,
2013-08-15 01:48:00,63.4,61.0,29.92,SW,234,0.0,0.0,92,0.00,,---,0.00,VWS V14.01,2013-08-15 08:48:00,
2013-08-15 01:53:00,63.3,60.9,29.91,SW,234,0.0,0.0,92,0.00,,---,0.00,VWS V14.01,2013-08-15 08:53:00,
2013-08-15 01:58:00,63.2,60.8,29.91,SW,234,0.0,0.0,92,0.00,,---,0.00,VWS V14.01,2013-08-15 08:58:00,
2013-08-15 02:03:00,63.2,60.8,29.92,SW,234,0.0,0.0,92,0.00,,---,0.00,VWS V14.01,2013-08-15 09:03:00,
2013-08-15 02:08:00,63.2,60.8,29.92,SW,234,0.0,0.0,92,0.00,,---,0.00,VWS V14.01,2013-08-15 09:08:00,
2013-08-15 02:13:00,63.1,61.0,29.92,SW,234,0.0,0.0,93,0.00,,---,0.00,VWS V14.01,2013-08-15 09:13:00,
2013-08-15 02:18:00,63.1,61.0,29.92,SW,234,0.0,0.0,93,0.00,,---,0.00,VWS V14.01,2013-08-15 09:18:00,
2013-08-15 02:23:00,63.0,61.0,29.91,SW,234,0.0,0.0,93,0.00,,---,0.00,VWS V14.01,2013-08-15 09:23:00,
2013-08-15 02:28:00,62.9,60.8,29.92,SW,234,0.0,0.0,93,0.00,,---,0.00,VWS V14.01,2013-08-15 09:28:00,
2013-08-15 02:33:00,62.9,60.8,29.91,SW,234,0.0,0.0,93,0.00,,---,0.00,VWS V14.01,2013-08-15 09:33:00,
2013-08-15 02:38:00,63.0,61.0,29.91,SW,234,0.0,0.0,93,0.00,,---,0.00,VWS V14.01,2013-08-15 09:38:00,
2013-08-15 02:44:00,63.0,61.0,29.91,SW,234,0.0,0.0,93,0.00,,---,0.00,VWS V14.01,2013-08-15 09:44:00,
2013-08-15 02:49:00,63.1,61.0,29.91,SW,234,0.0,0.0,93,0.00,,---,0.00,VWS V14.01,2013-08-15 09:49:00,
2013-08-15 02:54:00,63.1,61.0,29.91,SW,234,0.0,0.0,93,0.00,,---,0.00,VWS V14.01,2013-08-15 09:54:00,
2013-08-15 02:59:00,63.2,61.2,29.92,SW,234,0.0,0.0,93,0.00,,---,0.00,VWS V14.01,2013-08-15 09:59:00,
2013-08-15 03:04:00,63.2,61.2,29.91,SW,234,2.0,2.0,93,0.00,,---,0.00,VWS V14.01,2013-08-15 10:04:00,
2013-08-15 03:09:00,63.3,61.2,29.91,NNE,32,0.0,3.0,93,0.00,,---,0.00,VWS V14.01,2013-08-15 10:09:00,
2013-08-15 03:14:00,63.4,61.3,29.91,NNE,32,0.0,3.0,93,0.00,,---,0.00,VWS V14.01,2013-08-15 10:14:00,
2013-08-15 03:19:00,63.5,61.4,29.91,NE,34,0.0,3.0,93,0.00,,---,0.00,VWS V14.01,2013-08-15 10:19:00,
2013-08-15 03:24:00,63.5,61.4,29.92,NE,34,0.0,3.0,93,0.00,,---,0.00,VWS V14.01,2013-08-15 10:24:00,
2013-08-15 03:29:00,63.5,61.4,29.91,NE,34,0.0,3.0,93,0.00,,---,0.00,VWS V14.01,2013-08-15 10:29:00,
2013-08-15 03:34:00,63.5,61.4,29.91,NE,34,0.0,0.0,93,0.00,,---,0.00,VWS V14.01,2013-08-15 10:34:00,
2013-08-15 03:39:00,63.6,61.2,29.91,NE,34,0.0,0.0,92,0.00,,---,0.00,VWS V14.01,2013-08-15 10:39:00,
2013-08-15 03:44:00,63.7,61.3,29.91,NE,34,0.0,0.0,92,0.00,,---,0.00,VWS V14.01,2013-08-15 10:44:00,
2013-08-15 03:49:00,63.8,61.4,29.91,NE,40,0.0,1.0,92,0.00,,---,0.00,VWS V14.01,2013-08-15 10:49:00,
2013-08-15 03:54:00,63.8,61.7,29.92,NE,40,0.0,1.0,93,0.00,,---,0.00,VWS V14.01,2013-08-15 10:54:00,
2013-08-15 03:59:00,63.8,61.7,29.92,NE,40,0.0,1.0,93,0.00,,---,0.00,VWS V14.01,2013-08-15 10:59:00,
2013-08-15 04:05:00,63.8,61.7,29.92,ENE,66,0.0,0.0,93,0.00,,---,0.00,VWS V14.01,2013-08-15 11:05:00,
2013-08-15 04:10:00,63.8,61.7,29.91,East,100,0.0,0.0,93,0.00,,---,0.00,VWS V14.01,2013-08-15 11:10:00,
2013-08-15 04:15:00,63.7,61.6,29.91,East,100,0.0,0.0,93,0.00,,---,0.00,VWS V14.01,2013-08-15 11:15:00,
2013-08-15 04:20:00,63.7,61.6,29.91,East,99,0.0,0.0,93,0.00,,---,0.00,VWS V14.01,2013-08-15 11:20:00,
2013-08-15 04:25:00,63.7,61.6,29.91,East,100,0.0,0.0,93,0.00,,---,0.00,VWS V14.01,2013-08-15 11:25:00,
2013-08-15 04:30:00,63.6,61.5,29.91,East,100,0.0,0.0,93,0.00,,---,0.00,VWS V14.01,2013-08-15 11:30:00,
2013-08-15 04:35:00,63.6,61.5,29.91,East,99,0.0,0.0,93,0.00,,---,0.00,VWS V14.01,2013-08-15 11:35:00,
2013-08-15 04:40:00,63.6,61.5,29.91,East,100,0.0,0.0,93,0.00,,---,0.00,VWS V14.01,2013-08-15 11:40:00,
2013-08-15 04:45:00,63.6,61.5,29.91,East,99,0.0,0.0,93,0.00,,---,0.00,VWS V14.01,2013-08-15 11:45:00,
2013-08-15 04:50:00,63.7,61.6,29.91,East,100,0.0,0.0,93,0.00,,---,0.00,VWS V14.01,2013-08-15 11:50:00,
2013-08-15 04:55:00,63.7,61.6,29.91,East,100,0.0,0.0,93,0.00,,---,0.00,VWS V14.01,2013-08-15 11:55:00,
2013-08-15 05:00:00,63.7,61.6,29.91,East,99,0.0,0.0,93,0.00,,---,0.00,VWS V14.01,2013-08-15 12:00:00,
2013-08-15 05:05:00,63.7,61.6,29.91,East,100,0.0,0.0,93,0.00,,---,0.00,VWS V14.01,2013-08-15 12:05:00,
2013-08-15 05:10:00,63.7,61.6,29.91,East,100,0.0,0.0,93,0.00,,---,0.00,VWS V14.01,2013-08-15 12:10:00,
2013-08-15 05:15:00,63.7,61.6,29.91,East,100,0.0,0.0,93,0.00,,---,0.00,VWS V14.01,2013-08-15 12:15:00,
2013-08-15 05:20:00,63.7,61.6,29.92,East,100,0.0,0.0,93,0.00,,---,0.00,VWS V14.01,2013-08-15 12:20:00,
2013-08-15 05:25:00,63.7,62.0,29.92,East,100,0.0,0.0,94,0.00,,---,0.00,VWS V14.01,2013-08-15 12:25:00,
2013-08-15 05:30:00,63.7,62.0,29.92,East,100,0.0,0.0,94,0.00,,---,0.00,VWS V14.01,2013-08-15 12:30:00,
2013-08-15 05:36:00,63.7,61.6,29.92,East,100,0.0,0.0,93,0.00,,---,0.00,VWS V14.01,2013-08-15 12:36:00,
2013-08-15 05:41:00,63.7,61.6,29.92,East,99,0.0,0.0,93,0.00,,---,0.00,VWS V14.01,2013-08-15 12:41:00,
2013-08-15 05:46:00,63.8,61.7,29.92,East,99,0.0,0.0,93,0.00,,---,0.00,VWS V14.01,2013-08-15 12:46:00,
2013-08-15 05:51:00,63.8,61.7,29.92,East,100,0.0,0.0,93,0.00,,---,0.00,VWS V14.01,2013-08-15 12:51:00,
2013-08-15 05:56:00,63.9,61.8,29.92,East,100,0.0,0.0,93,0.00,,---,0.00,VWS V14.01,2013-08-15 12:56:00,
2013-08-15 06:01:00,63.9,61.8,29.92,East,100,0.0,0.0,93,0.00,,---,0.00,VWS V14.01,2013-08-15 13:01:00,
2013-08-15 06:06:00,63.9,61.8,29.92,East,99,0.0,0.0,93,0.00,,---,0.00,VWS V14.01,2013-08-15 13:06:00,
2013-08-15 06:11:00,63.9,61.8,29.92,East,100,0.0,0.0,93,0.00,,---,0.00,VWS V14.01,2013-08-15 13:11:00,
2013-08-15 06:16:00,63.9,61.5,29.92,East,99,0.0,0.0,92,0.00,,---,0.00,VWS V14.01,2013-08-15 13:16:00,
2013-08-15 06:21:00,63.9,61.5,29.92,East,99,0.0,0.0,92,0.00,,---,0.00,VWS V14.01,2013-08-15 13:21:00,
2013-08-15 06:26:00,63.9,61.5,29.92,East,100,0.0,0.0,92,0.00,,---,0.00,VWS V14.01,2013-08-15 13:26:00,
2013-08-15 06:31:00,63.9,61.8,29.92,East,99,0.0,0.0,93,0.00,,---,0.00,VWS V14.01,2013-08-15 13:31:00,
2013-08-15 06:36:00,64.0,61.9,29.92,East,100,0.0,0.0,93,0.00,,---,0.00,VWS V14.01,2013-08-15 13:36:00,
2013-08-15 06:41:00,64.0,61.9,29.92,East,99,0.0,0.0,93,0.00,,---,0.00,VWS V14.01,2013-08-15 13:41:00,
2013-08-15 06:47:00,64.0,61.9,29.92,East,100,0.0,0.0,93,0.00,,---,0.00,VWS V14.01,2013-08-15 13:47:00,
2013-08-15 06:52:00,64.1,62.0,29.92,East,100,0.0,0.0,93,0.00,,---,0.00,VWS V14.01,2013-08-15 13:52:00,
2013-08-15 06:57:00,64.1,62.0,29.92,East,100,0.0,0.0,93,0.00,,---,0.00,VWS V14.01,2013-08-15 13:57:00,
2013-08-15 07:02:00,64.3,62.2,29.93,East,100,0.0,0.0,93,0.00,,---,0.00,VWS V14.01,2013-08-15 14:02:00,
2013-08-15 07:07:00,64.3,62.2,29.93,East,100,0.0,0.0,93,0.00,,---,0.00,VWS V14.01,2013-08-15 14:07:00,
2013-08-15 07:12:00,64.4,62.3,29.93,East,100,0.0,0.0,93,0.00,,---,0.00,VWS V14.01,2013-08-15 14:12:00,
2013-08-15 07:17:00,64.4,62.3,29.93,East,99,0.0,0.0,93,0.00,,---,0.00,VWS V14.01,2013-08-15 14:17:00,
2013-08-15 07:22:00,64.4,62.3,29.93,East,99,0.0,0.0,93,0.00,,---,0.00,VWS V14.01,2013-08-15 14:22:00,
2013-08-15 07:27:00,64.5,62.4,29.93,East,100,0.0,0.0,93,0.00,,---,0.00,VWS V14.01,2013-08-15 14:27:00,
2013-08-15 07:32:00,64.6,62.5,29.93,East,100,0.0,0.0,93,0.00,,---,0.00,VWS V14.01,2013-08-15 14:32:00,
2013-08-15 07:37:00,64.6,62.5,29.93,East,100,0.0,0.0,93,0.00,,---,0.00,VWS V14.01,2013-08-15 14:37:00,
2013-08-15 07:42:00,64.7,62.6,29.93,East,99,0.0,0.0,93,0.00,,---,0.00,VWS V14.01,2013-08-15 14:42:00,
2013-08-15 07:47:00,64.8,62.7,29.93,East,100,0.0,0.0,93,0.00,,---,0.00,VWS V14.01,2013-08-15 14:47:00,
2013-08-15 07:52:00,65.0,62.6,29.93,East,100,0.0,0.0,92,0.00,,---,0.00,VWS V14.01,2013-08-15 14:52:00,
2013-08-15 07:57:00,65.1,62.7,29.94,East,100,0.0,1.0,92,0.00,,---,0.00,VWS V14.01,2013-08-15 14:57:00,
2013-08-15 08:03:00,65.2,62.8,29.94,East,100,0.0,1.0,92,0.00,,---,0.00,VWS V14.01,2013-08-15 15:03:00,
2013-08-15 08:08:00,65.4,62.7,29.94,SSW,207,1.0,3.0,91,0.00,,---,0.00,VWS V14.01,2013-08-15 15:08:00,
2013-08-15 08:13:00,65.6,62.9,29.94,SSW,208,0.0,3.0,91,0.00,,---,0.00,VWS V14.01,2013-08-15 15:13:00,
2013-08-15 08:18:00,65.9,62.9,29.94,SSW,208,1.0,3.0,90,0.00,,---,0.00,VWS V14.01,2013-08-15 15:18:00,
2013-08-15 08:23:00,66.3,63.3,29.93,SSW,210,0.0,3.0,90,0.00,,---,0.00,VWS V14.01,2013-08-15 15:23:00,
2013-08-15 08:28:00,66.6,63.3,29.93,SSW,210,0.0,3.0,89,0.00,,---,0.00,VWS V14.01,2013-08-15 15:28:00,
2013-08-15 08:33:00,66.8,63.5,29.93,SSW,210,0.0,1.0,89,0.00,,---,0.00,VWS V14.01,2013-08-15 15:33:00,
2013-08-15 08:38:00,67.2,63.5,29.93,SSW,210,0.0,1.0,88,0.00,,---,0.00,VWS V14.01,2013-08-15 15:38:00,
2013-08-15 08:43:00,67.5,63.5,29.94,South,170,0.0,1.0,87,0.00,,---,0.00,VWS V14.01,2013-08-15 15:43:00,
2013-08-15 08:49:00,67.9,63.9,29.94,South,173,0.0,1.0,87,0.00,,---,0.00,VWS V14.01,2013-08-15 15:49:00,
2013-08-15 08:54:00,68.1,64.1,29.94,South,174,0.0,1.0,87,0.00,,---,0.00,VWS V14.01,2013-08-15 15:54:00,
2013-08-15 08:59:00,68.1,63.8,29.94,South,174,0.0,1.0,86,0.00,,---,0.00,VWS V14.01,2013-08-15 15:59:00,
2013-08-15 09:04:00,68.0,63.7,29.94,South,174,0.0,0.0,86,0.00,,---,0.00,VWS V14.01,2013-08-15 16:04:00,
2013-08-15 09:09:00,67.8,63.5,29.94,South,172,0.0,1.0,86,0.00,,---,0.00,VWS V14.01,2013-08-15 16:09:00,
2013-08-15 09:14:00,67.7,63.4,29.94,South,172,0.0,1.0,86,0.00,,---,0.00,VWS V14.01,2013-08-15 16:14:00,
2013-08-15 09:19:00,67.6,63.3,29.94,South,170,0.0,2.0,86,0.00,,---,0.00,VWS V14.01,2013-08-15 16:19:00,
2013-08-15 09:24:00,67.4,63.4,29.94,SSE,156,0.0,3.0,87,0.00,,---,0.00,VWS V14.01,2013-08-15 16:24:00,
2013-08-15 09:29:00,67.2,63.2,29.94,SSE,155,1.0,3.0,87,0.00,,---,0.00,VWS V14.01,2013-08-15 16:29:00,
2013-08-15 09:34:00,67.1,63.1,29.94,SSE,156,0.0,1.0,87,0.00,,---,0.00,VWS V14.01,2013-08-15 16:34:00,
2013-08-15 09:39:00,67.1,63.4,29.94,SSE,152,0.0,2.0,88,0.00,,---,0.00,VWS V14.01,2013-08-15 16:39:00,
2013-08-15 09:45:00,66.8,63.5,29.94,SE,140,0.0,4.0,89,0.00,,---,0.00,VWS V14.01,2013-08-15 16:45:00,
2013-08-15 09:50:00,66.7,63.7,29.94,SSE,159,0.0,4.0,90,0.01,,---,0.01,VWS V14.01,2013-08-15 16:50:00,
2013-08-15 09:55:00,66.9,64.2,29.94,SSE,159,0.0,4.0,91,0.01,,---,0.01,VWS V14.01,2013-08-15 16:55:00,
2013-08-15 10:00:00,67.0,64.3,29.94,SSE,159,0.0,4.0,91,0.01,,---,0.01,VWS V14.01,2013-08-15 17:00:00,
2013-08-15 10:05:00,67.1,64.4,29.94,SSE,161,1.0,1.0,91,0.01,,---,0.01,VWS V14.01,2013-08-15 17:05:00,
2013-08-15 10:10:00,67.2,64.5,29.94,South,175,1.0,2.0,91,0.01,,---,0.01,VWS V14.01,2013-08-15 17:10:00,
2013-08-15 10:15:00,67.3,64.3,29.94,SW,222,0.0,3.0,90,0.01,,---,0.01,VWS V14.01,2013-08-15 17:15:00,
2013-08-15 10:20:00,67.4,64.4,29.95,SW,234,0.0,3.0,90,0.01,,---,0.01,VWS V14.01,2013-08-15 17:20:00,
2013-08-15 10:26:00,67.6,64.6,29.94,SW,233,0.0,3.0,90,0.01,,---,0.01,VWS V14.01,2013-08-15 17:26:00,
2013-08-15 10:31:00,67.8,64.8,29.95,SW,234,0.0,0.0,90,0.01,,---,0.01,VWS V14.01,2013-08-15 17:31:00,
2013-08-15 10:36:00,68.1,64.7,29.95,SW,234,0.0,3.0,89,0.01,,---,0.01,VWS V14.01,2013-08-15 17:36:00,
2013-08-15 10:41:00,68.3,64.9,29.95,SW,234,0.0,3.0,89,0.01,,---,0.01,VWS V14.01,2013-08-15 17:41:00,
2013-08-15 10:46:00,68.2,65.2,29.95,SW,234,0.0,3.0,90,0.01,,---,0.01,VWS V14.01,2013-08-15 17:46:00,
2013-08-15 10:52:00,68.1,64.7,29.95,SW,234,0.0,3.0,89,0.01,,---,0.01,VWS V14.01,2013-08-15 17:52:00,
2013-08-15 10:57:00,68.0,65.0,29.95,SW,234,0.0,3.0,90,0.01,,---,0.01,VWS V14.01,2013-08-15 17:57:00,
2013-08-15 11:02:00,67.7,64.3,29.96,South,184,0.0,1.0,89,0.00,,---,0.01,VWS V14.01,2013-08-15 18:02:00,
2013-08-15 11:07:00,67.4,64.1,29.96,SE,142,0.0,6.0,89,0.00,,---,0.01,VWS V14.01,2013-08-15 18:07:00,
2013-08-15 11:12:00,67.4,64.7,29.96,SW,215,0.0,6.0,91,0.00,,---,0.01,VWS V14.01,2013-08-15 18:12:00,
2013-08-15 11:18:00,67.5,65.1,29.96,SW,230,0.0,6.0,92,0.00,,---,0.01,VWS V14.01,2013-08-15 18:18:00,
2013-08-15 11:23:00,67.5,64.8,29.96,SW,230,0.0,6.0,91,0.00,,---,0.01,VWS V14.01,2013-08-15 18:23:00,
2013-08-15 11:28:00,67.1,64.4,29.96,South,175,1.0,6.0,91,0.00,,---,0.01,VWS V14.01,2013-08-15 18:28:00,
2013-08-15 11:34:00,66.8,64.1,29.96,SSE,148,0.0,3.0,91,0.00,,---,0.01,VWS V14.01,2013-08-15 18:34:00,
2013-08-15 11:39:00,66.7,64.0,29.96,SSE,152,0.0,3.0,91,0.00,,---,0.01,VWS V14.01,2013-08-15 18:39:00,
2013-08-15 11:44:00,66.8,64.4,29.96,South,177,0.0,3.0,92,0.00,,---,0.01,VWS V14.01,2013-08-15 18:44:00,
2013-08-15 11:49:00,67.1,64.7,29.96,SSE,163,1.0,3.0,92,0.00,,---,0.01,VWS V14.01,2013-08-15 18:49:00,
2013-08-15 11:54:00,67.2,64.2,29.96,SSE,159,0.0,3.0,90,0.00,,---,0.01,VWS V14.01,2013-08-15 18:54:00,
2013-08-15 12:00:00,67.5,64.8,29.96,SSE,166,0.0,3.0,91,0.00,,---,0.01,VWS V14.01,2013-08-15 19:00:00,
2013-08-15 12:05:00,67.9,64.5,29.95,SE,146,0.0,5.0,89,0.00,,---,0.01,VWS V14.01,2013-08-15 19:05:00,
2013-08-15 12:10:00,68.1,64.7,29.95,SSE,161,0.0,7.0,89,0.01,,---,0.02,VWS V14.01,2013-08-15 19:10:00,
2013-08-15 12:15:00,68.2,64.5,29.95,SW,223,0.0,7.0,88,0.01,,---,0.02,VWS V14.01,2013-08-15 19:15:00,
2013-08-15 12:20:00,68.3,64.6,29.96,SE,145,0.0,7.0,88,0.01,,---,0.02,VWS V14.01,2013-08-15 19:20:00,
2013-08-15 12:26:00,68.4,64.4,29.96,ESE,110,0.0,7.0,87,0.01,,---,0.02,VWS V14.01,2013-08-15 19:26:00,
2013-08-15 12:31:00,68.1,64.1,29.96,SSE,159,0.0,0.0,87,0.01,,---,0.02,VWS V14.01,2013-08-15 19:31:00,
2013-08-15 12:36:00,68.0,64.3,29.96,SE,139,0.0,5.0,88,0.01,,---,0.02,VWS V14.01,2013-08-15 19:36:00,
2013-08-15 12:41:00,68.1,64.4,29.96,SSW,195,0.0,5.0,88,0.01,,---,0.02,VWS V14.01,2013-08-15 19:41:00,
2013-08-15 12:46:00,68.3,64.3,29.96,SSE,153,0.0,5.0,87,0.01,,---,0.02,VWS V14.01,2013-08-15 19:46:00,
2013-08-15 12:51:00,68.5,64.8,29.96,SSE,152,0.0,5.0,88,0.01,,---,0.02,VWS V14.01,2013-08-15 19:51:00,
2013-08-15 12:56:00,68.8,65.1,29.96,SSE,152,0.0,5.0,88,0.01,,---,0.02,VWS V14.01,2013-08-15 19:56:00,
2013-08-15 13:02:00,68.9,65.2,29.96,SE,130,0.0,1.0,88,0.01,,---,0.02,VWS V14.01,2013-08-15 20:02:00,
2013-08-15 13:07:00,68.8,64.8,29.96,SE,129,0.0,4.0,87,0.01,,---,0.02,VWS V14.01,2013-08-15 20:07:00,
2013-08-15 13:12:00,68.5,64.5,29.96,SSE,163,0.0,4.0,87,0.01,,---,0.02,VWS V14.01,2013-08-15 20:12:00,
2013-08-15 13:17:00,68.7,65.0,29.96,ESE,103,0.0,4.0,88,0.01,,---,0.02,VWS V14.01,2013-08-15 20:17:00,
2013-08-15 13:22:00,69.1,64.7,29.96,SSE,157,0.0,4.0,86,0.01,,---,0.02,VWS V14.01,2013-08-15 20:22:00,
2013-08-15 13:28:00,69.4,64.7,29.96,South,175,0.0,4.0,85,0.01,,---,0.02,VWS V14.01,2013-08-15 20:28:00,
2013-08-15 13:33:00,69.7,65.0,29.96,South,175,0.0,1.0,85,0.00,,---,0.02,VWS V14.01,2013-08-15 20:33:00,
2013-08-15 13:38:00,70.0,64.6,29.96,WSW,253,0.0,2.0,83,0.00,,---,0.02,VWS V14.01,2013-08-15 20:38:00,
2013-08-15 13:43:00,70.1,64.7,29.96,SW,216,0.0,5.0,83,0.00,,---,0.02,VWS V14.01,2013-08-15 20:43:00,
2013-08-15 13:48:00,70.1,64.7,29.97,SW,216,0.0,5.0,83,0.00,,---,0.02,VWS V14.01,2013-08-15 20:48:00,
2013-08-15 13:54:00,70.0,64.6,29.97,SW,223,2.0,5.0,83,0.00,,---,0.02,VWS V14.01,2013-08-15 20:54:00,
2013-08-15 13:58:00,69.8,64.4,29.97,SSE,148,0.0,5.0,83,0.00,,---,0.02,VWS V14.01,2013-08-15 20:58:00,
2013-08-15 14:04:00,69.6,64.2,29.97,SSE,164,0.0,2.0,83,0.00,,---,0.02,VWS V14.01,2013-08-15 21:04:00,
2013-08-15 14:09:00,69.7,64.7,29.97,SW,230,0.0,4.0,84,0.00,,---,0.02,VWS V14.01,2013-08-15 21:09:00,
2013-08-15 14:14:00,69.8,64.4,29.97,SW,227,0.0,4.0,83,0.00,,---,0.02,VWS V14.01,2013-08-15 21:14:00,
2013-08-15 14:19:00,69.7,64.3,29.97,SW,228,0.0,4.0,83,0.00,,---,0.02,VWS V14.01,2013-08-15 21:19:00,
2013-08-15 14:24:00,69.7,64.7,29.97,SW,231,0.0,4.0,84,0.00,,---,0.02,VWS V14.01,2013-08-15 21:24:00,
2013-08-15 14:29:00,69.6,64.2,29.97,SW,231,0.0,4.0,83,0.00,,---,0.02,VWS V14.01,2013-08-15 21:29:00,
2013-08-15 14:34:00,69.6,64.6,29.97,SW,230,0.0,1.0,84,0.00,,---,0.02,VWS V14.01,2013-08-15 21:34:00,
2013-08-15 14:40:00,69.3,64.3,29.97,ESE,123,0.0,2.0,84,0.00,,---,0.02,VWS V14.01,2013-08-15 21:40:00,
2013-08-15 14:45:00,69.2,64.2,29.97,South,170,0.0,2.0,84,0.00,,---,0.02,VWS V14.01,2013-08-15 21:45:00,
2013-08-15 14:50:00,69.2,64.5,29.98,South,171,0.0,2.0,85,0.00,,---,0.02,VWS V14.01,2013-08-15 21:50:00,
2013-08-15 14:55:00,69.3,64.6,29.97,South,182,0.0,2.0,85,0.00,,---,0.02,VWS V14.01,2013-08-15 21:55:00,
2013-08-15 15:00:00,69.2,64.8,29.98,South,182,0.0,2.0,86,0.00,,---,0.02,VWS V14.01,2013-08-15 22:00:00,
2013-08-15 15:05:00,69.0,65.3,29.98,WSW,239,0.0,3.0,88,0.00,,---,0.02,VWS V14.01,2013-08-15 22:05:00,
2013-08-15 15:11:00,68.9,65.2,29.99,SE,132,0.0,3.0,88,0.00,,---,0.02,VWS V14.01,2013-08-15 22:11:00,
2013-08-15 15:16:00,68.7,64.7,29.98,ESE,123,1.0,3.0,87,0.00,,---,0.02,VWS V14.01,2013-08-15 22:16:00,
2013-08-15 15:21:00,68.5,65.1,29.97,ESE,111,0.0,7.0,89,0.00,,---,0.02,VWS V14.01,2013-08-15 22:21:00,
2013-08-15 15:26:00,68.3,64.9,29.96,East,98,0.0,7.0,89,0.00,,---,0.02,VWS V14.01,2013-08-15 22:26:00,
2013-08-15 15:31:00,68.2,64.8,29.97,ESE,114,3.0,4.0,89,0.00,,---,0.02,VWS V14.01,2013-08-15 22:31:00,
2013-08-15 15:36:00,68.1,64.4,29.95,NE,49,0.0,5.0,88,0.00,,---,0.02,VWS V14.01,2013-08-15 22:36:00,
2013-08-15 15:41:00,68.2,65.2,29.97,NE,46,0.0,5.0,90,0.00,,---,0.02,VWS V14.01,2013-08-15 22:41:00,
2013-08-15 15:46:00,68.2,65.2,29.97,East,90,0.0,5.0,90,0.00,,---,0.02,VWS V14.01,2013-08-15 22:46:00,
2013-08-15 15:51:00,68.3,65.3,29.97,East,90,0.0,5.0,90,0.01,,---,0.03,VWS V14.01,2013-08-15 22:51:00,
2013-08-15 15:56:00,68.4,65.0,29.96,ESE,116,0.0,5.0,89,0.01,,---,0.03,VWS V14.01,2013-08-15 22:56:00,
2013-08-15 16:02:00,68.3,64.9,29.98,South,182,3.0,4.0,89,0.01,,---,0.03,VWS V14.01,2013-08-15 23:02:00,
2013-08-15 16:07:00,68.3,65.3,29.98,SW,229,0.0,4.0,90,0.01,,---,0.03,VWS V14.01,2013-08-15 23:07:00,
2013-08-15 16:12:00,68.4,65.4,29.99,SSW,194,0.0,4.0,90,0.01,,---,0.03,VWS V14.01,2013-08-15 23:12:00,
2013-08-15 16:17:00,68.3,64.6,29.97,SW,233,0.0,7.0,88,0.01,,---,0.03,VWS V14.01,2013-08-15 23:17:00,
2013-08-15 16:22:00,68.2,64.5,29.97,SW,233,0.0,7.0,88,0.01,,---,0.03,VWS V14.01,2013-08-15 23:22:00,
2013-08-15 16:28:00,68.1,64.4,29.97,SW,233,0.0,7.0,88,0.01,,---,0.03,VWS V14.01,2013-08-15 23:28:00,
2013-08-15 16:33:00,68.1,64.7,29.97,SW,233,0.0,0.0,89,0.01,,---,0.03,VWS V14.01,2013-08-15 23:33:00,
2013-08-15 16:38:00,68.1,64.7,29.96,SW,233,0.0,0.0,89,0.01,,---,0.03,VWS V14.01,2013-08-15 23:38:00,
2013-08-15 16:43:00,68.1,64.7,29.97,SW,233,0.0,0.0,89,0.01,,---,0.03,VWS V14.01,2013-08-15 23:43:00,
2013-08-15 16:48:00,68.2,64.8,29.98,SSW,206,1.0,5.0,89,0.01,,---,0.03,VWS V14.01,2013-08-15 23:48:00,
2013-08-15 16:53:00,68.1,64.7,29.97,SW,228,2.0,5.0,89,0.01,,---,0.03,VWS V14.01,2013-08-15 23:53:00,
2013-08-15 16:58:00,67.9,64.5,29.97,WSW,252,0.0,5.0,89,0.01,,---,0.03,VWS V14.01,2013-08-15 23:58:00,
2013-08-15 17:03:00,67.7,64.7,29.96,WSW,252,0.0,1.0,90,0.00,,---,0.03,VWS V14.01,2013-08-16 00:03:00,
2013-08-15 17:08:00,67.6,64.6,29.97,WSW,249,0.0,2.0,90,0.00,,---,0.03,VWS V14.01,2013-08-16 00:08:00,
2013-08-15 17:13:00,67.8,64.8,29.97,SW,230,1.0,2.0,90,0.00,,---,0.03,VWS V14.01,2013-08-16 00:13:00,
2013-08-15 17:19:00,67.9,64.9,29.97,SW,226,3.0,3.0,90,0.00,,---,0.03,VWS V14.01,2013-08-16 00:19:00,
2013-08-15 17:24:00,68.0,64.6,29.97,SW,233,0.0,4.0,89,0.00,,---,0.03,VWS V14.01,2013-08-16 00:24:00,
2013-08-15 17:29:00,68.1,64.7,29.97,SW,233,0.0,4.0,89,0.00,,---,0.03,VWS V14.01,2013-08-16 00:29:00,
2013-08-15 17:34:00,68.1,64.4,29.97,SW,222,0.0,4.0,88,0.00,,---,0.03,VWS V14.01,2013-08-16 00:34:00,
2013-08-15 17:39:00,68.0,64.0,29.97,SSW,198,0.0,4.0,87,0.00,,---,0.03,VWS V14.01,2013-08-16 00:39:00,
2013-08-15 17:44:00,67.7,63.7,29.97,West,280,2.0,4.0,87,0.00,,---,0.03,VWS V14.01,2013-08-16 00:44:00,
2013-08-15 17:49:00,67.5,64.2,29.96,SW,223,0.0,4.0,89,0.00,,---,0.03,VWS V14.01,2013-08-16 00:49:00,
2013-08-15 17:55:00,67.5,64.2,29.96,SW,223,1.0,4.0,89,0.00,,---,0.03,VWS V14.01,2013-08-16 00:55:00,
2013-08-15 18:00:00,67.4,64.1,29.96,SW,223,0.0,4.0,89,0.00,,---,0.03,VWS V14.01,2013-08-16 01:00:00,
2013-08-15 18:05:00,67.3,64.0,29.97,SW,234,1.0,4.0,89,0.00,,---,0.03,VWS V14.01,2013-08-16 01:05:00,
2013-08-15 18:10:00,67.2,63.8,29.97,WSW,257,0.0,4.0,89,0.00,,---,0.03,VWS V14.01,2013-08-16 01:10:00,
2013-08-15 18:15:00,67.2,63.8,29.96,WSW,257,0.0,4.0,89,0.00,,---,0.03,VWS V14.01,2013-08-16 01:15:00,
2013-08-15 18:20:00,67.2,63.8,29.96,WSW,257,1.0,4.0,89,0.00,,---,0.03,VWS V14.01,2013-08-16 01:20:00,
2013-08-15 18:26:00,67.2,63.8,29.96,WSW,257,0.0,4.0,89,0.00,,---,0.03,VWS V14.01,2013-08-16 01:26:00,
2013-08-15 18:31:00,67.2,63.8,29.96,WSW,257,0.0,0.0,89,0.00,,---,0.03,VWS V14.01,2013-08-16 01:31:00,
2013-08-15 18:36:00,67.2,63.8,29.96,WSW,257,0.0,1.0,89,0.00,,---,0.03,VWS V14.01,2013-08-16 01:36:00,
2013-08-15 18:41:00,67.3,64.0,29.95,WSW,257,0.0,1.0,89,0.00,,---,0.03,VWS V14.01,2013-08-16 01:41:00,
2013-08-15 18:46:00,67.3,63.6,29.95,WSW,257,0.0,1.0,88,0.00,,---,0.03,VWS V14.01,2013-08-16 01:46:00,
2013-08-15 18:51:00,67.3,63.6,29.95,WSW,257,0.0,1.0,88,0.00,,---,0.03,VWS V14.01,2013-08-16 01:51:00,
2013-08-15 18:56:00,67.4,63.7,29.95,WSW,257,0.0,1.0,88,0.00,,---,0.03,VWS V14.01,2013-08-16 01:56:00,
2013-08-15 19:01:00,67.5,64.2,29.95,WSW,257,0.0,0.0,89,0.00,,---,0.03,VWS V14.01,2013-08-16 02:01:00,
2013-08-15 19:06:00,67.5,63.8,29.95,WSW,257,0.0,0.0,88,0.00,,---,0.03,VWS V14.01,2013-08-16 02:06:00,
2013-08-15 19:12:00,67.5,63.5,29.95,WSW,257,0.0,1.0,87,0.00,,---,0.03,VWS V14.01,2013-08-16 02:12:00,
2013-08-15 19:17:00,67.5,63.5,29.95,WSW,255,0.0,2.0,87,0.00,,---,0.03,VWS V14.01,2013-08-16 02:17:00,
2013-08-15 19:22:00,67.6,63.6,29.95,West,259,0.0,2.0,87,0.00,,---,0.03,VWS V14.01,2013-08-16 02:22:00,
2013-08-15 19:27:00,67.5,63.2,29.95,West,259,0.0,2.0,86,0.00,,---,0.03,VWS V14.01,2013-08-16 02:27:00,
2013-08-15 19:32:00,67.5,63.2,29.95,West,259,0.0,0.0,86,0.00,,---,0.03,VWS V14.01,2013-08-16 02:32:00,
2013-08-15 19:37:00,67.5,63.2,29.95,West,259,0.0,2.0,86,0.00,,---,0.03,VWS V14.01,2013-08-16 02:37:00,
2013-08-15 19:42:00,67.5,63.5,29.96,West,259,0.0,2.0,87,0.00,,---,0.03,VWS V14.01,2013-08-16 02:42:00,
2013-08-15 19:47:00,67.5,63.5,29.96,West,259,0.0,2.0,87,0.00,,---,0.03,VWS V14.01,2013-08-16 02:47:00,
2013-08-15 19:52:00,67.6,63.6,29.96,WSW,242,1.0,2.0,87,0.00,,---,0.03,VWS V14.01,2013-08-16 02:52:00,
2013-08-15 19:58:00,67.7,63.7,29.96,WSW,241,0.0,2.0,87,0.00,,---,0.03,VWS V14.01,2013-08-16 02:58:00,
2013-08-15 20:03:00,67.8,63.8,29.96,WSW,248,2.0,3.0,87,0.00,,---,0.03,VWS V14.01,2013-08-16 03:03:00,
2013-08-15 20:08:00,67.5,63.5,29.96,WSW,250,0.0,3.0,87,0.00,,---,0.03,VWS V14.01,2013-08-16 03:08:00,
2013-08-15 20:13:00,67.2,63.5,29.96,WSW,250,0.0,3.0,88,0.00,,---,0.03,VWS V14.01,2013-08-16 03:13:00,
2013-08-15 20:18:00,66.8,63.5,29.96,WSW,250,0.0,3.0,89,0.00,,---,0.03,VWS V14.01,2013-08-16 03:18:00,
2013-08-15 20:23:00,66.7,63.4,29.96,WSW,249,0.0,3.0,89,0.00,,---,0.03,VWS V14.01,2013-08-16 03:23:00,
2013-08-15 20:28:00,66.5,63.2,29.96,WSW,250,0.0,3.0,89,0.00,,---,0.03,VWS V14.01,2013-08-16 03:28:00,
2013-08-15 20:33:00,66.4,63.4,29.96,WSW,250,0.0,0.0,90,0.00,,---,0.03,VWS V14.01,2013-08-16 03:33:00,
2013-08-15 20:38:00,66.2,63.2,29.96,WSW,250,0.0,0.0,90,0.00,,---,0.03,VWS V14.01,2013-08-16 03:38:00,
2013-08-15 20:43:00,66.0,63.0,29.96,WSW,250,0.0,0.0,90,0.00,,---,0.03,VWS V14.01,2013-08-16 03:43:00,
2013-08-15 20:49:00,65.8,63.1,29.97,WSW,250,0.0,0.0,91,0.00,,---,0.03,VWS V14.01,2013-08-16 03:49:00,
2013-08-15 20:54:00,65.6,62.9,29.97,WSW,250,0.0,0.0,91,0.00,,---,0.03,VWS V14.01,2013-08-16 03:54:00,
2013-08-15 20:59:00,65.4,62.7,29.97,WSW,249,0.0,1.0,91,0.00,,---,0.03,VWS V14.01,2013-08-16 03:59:00,
2013-08-15 21:01:00,65.3,62.6,29.97,WSW,250,0.0,0.0,91,0.00,,---,0.03,VWS V14.01,2013-08-16 04:01:00,
2013-08-15 21:02:00,65.3,62.6,29.97,WSW,250,0.0,0.0,91,0.00,,---,0.03,VWS V14.01,2013-08-16 04:02:00,
2013-08-15 21:03:00,65.2,62.5,29.97,WSW,250,0.0,0.0,91,0.00,,---,0.03,VWS V14.01,2013-08-16 04:03:00,
2013-08-15 21:08:00,65.4,63.0,29.97,WSW,249,0.0,0.0,92,0.00,,---,0.03,VWS V14.01,2013-08-16 04:08:00,
2013-08-15 21:13:00,65.2,62.8,29.97,WSW,249,0.0,0.0,92,0.00,,---,0.03,VWS V14.01,2013-08-16 04:13:00,
2013-08-15 21:18:00,65.1,62.7,29.97,WSW,250,0.0,0.0,92,0.00,,---,0.03,VWS V14.01,2013-08-16 04:18:00,
2013-08-15 21:23:00,65.1,63.0,29.97,WSW,250,0.0,0.0,93,0.00,,---,0.03,VWS V14.01,2013-08-16 04:23:00,
2013-08-15 21:28:00,64.9,62.5,29.97,WSW,249,0.0,0.0,92,0.00,,---,0.03,VWS V14.01,2013-08-16 04:28:00,
2013-08-15 21:33:00,64.8,62.7,29.97,WSW,249,0.0,0.0,93,0.00,,---,0.03,VWS V14.01,2013-08-16 04:33:00,
2013-08-15 21:39:00,64.8,62.7,29.97,WSW,250,0.0,0.0,93,0.00,,---,0.03,VWS V14.01,2013-08-16 04:39:00,
2013-08-15 21:44:00,64.7,62.6,29.97,WSW,249,0.0,0.0,93,0.00,,---,0.03,VWS V14.01,2013-08-16 04:44:00,
2013-08-15 21:49:00,64.6,62.2,29.98,WSW,250,0.0,0.0,92,0.00,,---,0.03,VWS V14.01,2013-08-16 04:49:00,
2013-08-15 21:54:00,64.3,61.9,29.98,WSW,250,0.0,0.0,92,0.00,,---,0.03,VWS V14.01,2013-08-16 04:54:00,
2013-08-15 21:59:00,64.1,61.7,29.98,WSW,250,0.0,0.0,92,0.00,,---,0.03,VWS V14.01,2013-08-16 04:59:00,
2013-08-15 22:04:00,63.9,61.8,29.98,WSW,250,0.0,0.0,93,0.00,,---,0.03,VWS V14.01,2013-08-16 05:04:00,
2013-08-15 22:09:00,63.8,61.7,29.98,WSW,250,0.0,0.0,93,0.00,,---,0.03,VWS V14.01,2013-08-16 05:09:00,
2013-08-15 22:14:00,63.7,62.0,29.98,WSW,250,0.0,0.0,94,0.00,,---,0.03,VWS V14.01,2013-08-16 05:14:00,
2013-08-15 22:19:00,63.7,62.0,29.98,WSW,250,0.0,0.0,94,0.00,,---,0.03,VWS V14.01,2013-08-16 05:19:00,
2013-08-15 22:24:00,63.5,61.8,29.98,WSW,250,0.0,0.0,94,0.00,,---,0.03,VWS V14.01,2013-08-16 05:24:00,
2013-08-15 22:29:00,63.3,61.5,29.98,WSW,249,0.0,0.0,94,0.00,,---,0.03,VWS V14.01,2013-08-16 05:29:00,
2013-08-15 22:34:00,63.1,61.3,29.98,WSW,250,0.0,0.0,94,0.00,,---,0.03,VWS V14.01,2013-08-16 05:34:00,
2013-08-15 22:39:00,62.9,61.2,29.98,WSW,249,0.0,0.0,94,0.00,,---,0.03,VWS V14.01,2013-08-16 05:39:00,
2013-08-15 22:45:00,62.9,61.2,29.98,WSW,250,0.0,0.0,94,0.00,,---,0.03,VWS V14.01,2013-08-16 05:45:00,
2013-08-15 22:50:00,62.8,61.3,29.98,WSW,249,0.0,0.0,95,0.00,,---,0.03,VWS V14.01,2013-08-16 05:50:00,
2013-08-15 22:55:00,62.7,61.2,29.98,WSW,250,0.0,0.0,95,0.00,,---,0.03,VWS V14.01,2013-08-16 05:55:00,
2013-08-15 23:00:00,62.7,61.0,29.98,WSW,250,0.0,0.0,94,0.00,,---,0.03,VWS V14.01,2013-08-16 06:00:00,
2013-08-15 23:05:00,62.6,60.8,29.98,WSW,250,0.0,0.0,94,0.00,,---,0.03,VWS V14.01,2013-08-16 06:05:00,
2013-08-15 23:10:00,62.6,61.2,29.98,WSW,250,0.0,0.0,95,0.00,,---,0.03,VWS V14.01,2013-08-16 06:10:00,
2013-08-15 23:15:00,62.5,61.0,29.98,WSW,249,0.0,0.0,95,0.00,,---,0.03,VWS V14.01,2013-08-16 06:15:00,
2013-08-15 23:20:00,62.4,61.0,29.98,WSW,250,0.0,0.0,95,0.00,,---,0.03,VWS V14.01,2013-08-16 06:20:00,
2013-08-15 23:25:00,62.2,60.8,29.98,WSW,250,0.0,0.0,95,0.00,,---,0.03,VWS V14.01,2013-08-16 06:25:00,
2013-08-15 23:30:00,62.2,60.8,29.98,WSW,250,0.0,0.0,95,0.00,,---,0.03,VWS V14.01,2013-08-16 06:30:00,
2013-08-15 23:35:00,62.0,60.6,29.98,WSW,249,0.0,0.0,95,0.00,,---,0.03,VWS V14.01,2013-08-16 06:35:00,
2013-08-15 23:40:00,62.1,60.7,29.98,WSW,250,0.0,0.0,95,0.00,,---,0.03,VWS V14.01,2013-08-16 06:40:00,
2013-08-15 23:45:00,62.0,60.6,29.98,WSW,249,0.0,0.0,95,0.00,,---,0.03,VWS V14.01,2013-08-16 06:45:00,
2013-08-15 23:50:00,61.8,60.4,29.98,WSW,250,0.0,0.0,95,0.00,,---,0.03,VWS V14.01,2013-08-16 06:50:00,
2013-08-15 23:55:00,61.7,60.3,29.98,WSW,249,0.0,0.0,95,0.00,,---,0.03,VWS V14.01,2013-08-16 06:55:00,